Location: ????????
(60.5616°N, 46.8254°E)
Time: 04:44:23
(UTC+00:00)

Ariane Rocket - Pass Details

Date: 18 February 2020
Orbit: 759 x 771 km, 98.7° (Epoch: 02 April)

Event Time Altitude Azimuth Distance (km) Brightness Sun altitude
Rises 15:03:40 0° 144° (SE) 3,239 5.9 -9.8°
Reaches altitude 10° 15:05:59 10° 140° (SE) 2,317 5.2 -10.1°
Maximum altitude 15:10:59 57° 63° (ENE) 908 3.1 -10.7°
Drops below altitude 10° 15:16:00 10° 346° (NNW) 2,331 5.6 -11.3°
Sets 15:18:21 0° 342° (NNW) 3,261 6.5 -11.6°
